Simultaneous Nadir Overpasses (SNOs) Predictions

Prediction of SNOs between NOAA-19 and NPP Satellite Orbit:

Table of predicted SNOs for the next 14.0 days since TLE Epoch: 11/2/2018
Index Date (NOAA-19) Time (NOAA-19) Lat,Lon (NOAA-19) SZA (NOAA-19 ) Date (NPP) Time (NPP) Lat,Lon (NPP) SZA (NPP ) Distance(km) Time Diff (sec)
1 11/10/2018 15:09:20 -80.35, 89.25 80.35 11/10/2018 15:10:35 -80.39, 89.50 80.37 6.08 75
2 11/10/2018 16:00:19 80.37,-103.21 99.65 11/10/2018 16:01:20 80.38,-103.11 99.63 2.49 61
3 11/10/2018 16:51:20 -80.37, 64.09 80.35 11/10/2018 16:52:05 -80.39, 64.09 80.35 2.19 45
4 11/10/2018 17:42:19 80.39,-128.37 99.65 11/10/2018 17:42:50 80.39,-128.52 99.65 2.71 31
5 11/10/2018 18:33:20 -80.39, 38.93 80.35 11/10/2018 18:33:34 -80.37, 39.01 80.38 2.91 14
6 11/10/2018 19:24:20 80.39,-153.86 99.67 11/10/2018 19:24:20 80.39,-153.92 99.68 1.06 0
7 11/10/2018 20:15:21 -80.39, 13.43 80.33 11/10/2018 20:15:05 -80.40, 13.29 80.30 2.72 16
8 11/10/2018 21:06:21 80.39,-179.36 99.69 11/10/2018 21:05:50 80.39,-179.33 99.70 0.60 31
9 11/10/2018 21:57:22 -80.39, -12.07 80.31 11/10/2018 21:56:35 -80.40, -12.12 80.28 1.22 47
10 11/10/2018 22:48:22 80.39, 155.15 99.71 11/10/2018 22:47:20 80.39, 155.27 99.73 2.25 62




NCC Satellite Simultaneous Nadir Overpasses (SNOs) Prediction Service
